Startpagina
METAR-TAF:

METAR-TAF

Vliegvelden :

Productieplatform

J6-a, Nederland

breedte: 53-49-27N, lengte: 2-56-43E, hoogte: 34 m

Actueel weer

Dit bericht is 36 minuten geleden gemaakt, om 22:25 UTC
Wind 9 kt uit het zuidwesten
Temperatuur 18°C
Vochtigheid 64%
Druk 1015 hPa
Zicht 10 km of meer

METAR: EHJA 192225Z AUTO 22009KT 9999 NCD 18/11 Q1015

Tijdstip: 01:01 (23:01 UTC)


TAF: ontbreekt

Waarnemingen en weersverwachtingen van meer dan 4000 vliegvelden (METAR en TAF).

De beschikbare stations zijn de gele en rode punten op de kaart.

Ga met uw muis naar het station om de naam te zien.

Klik dan om waarnemingen en weersverwachtingen te zien.

kaart wijzigen: klik op de groene knoppen met een zwart kruis om in te zoomen, op de groene knop met een streepje om uit te zoomen of op de groene pijlen voor aangrenzende kaarten.


METAR-TAF: